This is the latest recevied weather packets stored in our database for station/object W1HVD. If no packets are shown the sender has not sent any weather packets the latest 10 day(s).
| Time | Temp. | Humidity | Pressure | Rain* | Wind** | Luminosity | Snow |
|---|---|---|---|---|---|---|---|
| 1777629713 | 8.89° C | 84% | 1009 hPa | 0 mm | - | 9 W/m² | - |
| 1777629409 | 8.89° C | 85% | 1009 hPa | 0 mm | - | 6 W/m² | - |
| 1777629104 | 8.33° C | 86% | 1009 hPa | 0 mm | - | 5 W/m² | - |
| 1777628802 | 8.89° C | 87% | 1008.9 hPa | 0 mm | - | 3 W/m² | - |
| 1777628498 | 8.89° C | 85% | 1008.8 hPa | 0 mm | - | 2 W/m² | - |
| 1777628194 | 8.33° C | 87% | 1008.8 hPa | 0 mm | - | 1 W/m² | - |
| 1777627890 | 8.33° C | 87% | 1008.7 hPa | 0 mm | - | 1 W/m² | - |
| 1777627588 | 8.33° C | 88% | 1008.6 hPa | 0 mm | - | 0 W/m² | - |
| 1777627283 | 8.33° C | 86% | 1008.6 hPa | 0 mm | - | 0 W/m² | - |
| 1777626981 | 8.33° C | 86% | 1008.6 hPa | 0 mm | - | 0 W/m² | - |
| 1777626677 | 8.89° C | 87% | 1008.6 hPa | 0 mm | - | 0 W/m² | - |
| 1777626373 | 8.89° C | 88% | 1008.6 hPa | 0 mm | - | 0 W/m² | - |
| 1777626071 | 8.89° C | 87% | 1008.6 hPa | 0 mm | - | 0 W/m² | - |
| 1777625767 | 8.89° C | 87% | 1008.3 hPa | 0 mm | - | 0 W/m² | - |
| 1777625462 | 8.89° C | 85% | 1008.4 hPa | 0 mm | - | 0 W/m² | - |
| 1777625158 | 8.89° C | 87% | 1008.4 hPa | 0 mm | - | 0 W/m² | - |
| 1777624855 | 8.89° C | 86% | 1008.4 hPa | 0 mm | - | 0 W/m² | - |
| 1777624551 | 9.44° C | 90% | 1008.2 hPa | 0 mm | - | 0 W/m² | - |
| 1777624244 | 9.44° C | 89% | 1008.1 hPa | 0 mm | - | 0 W/m² | - |
| 1777623939 | 9.44° C | 86% | 1008.1 hPa | 0 mm | - | 0 W/m² | - |
| 1777623635 | 9.44° C | 89% | 1008 hPa | 0 mm | - | 0 W/m² | - |
| 1777623334 | 9.44° C | 87% | 1007.9 hPa | 0 mm | - | 0 W/m² | - |
| 1777623030 | 10° C | 86% | 1008 hPa | 0 mm | - | 0 W/m² | - |
| 1777622727 | 10° C | 87% | 1007.9 hPa | 0 mm | - | 0 W/m² | - |
| 1777622423 | 10° C | 87% | 1007.8 hPa | 0 mm | - | 0 W/m² | - |
* Rain latest hour (hover to see other rain measurements)
** Current wind speed in m/s (hover to see current wind gust speed)